Flag for U.S.A. Weather past 2 weeks in Santa Clarita, California, U.S.A.

Now
76 °F

Sunny.


Feels Like: 78 °F
Forecast: 56 / 83 °F
Wind: No wind

Location: Van Nuys Airport


UV Index: 5 (Moderate)

Visibility: 10 mi


Pressure: 30.03 "Hg

Humidity: 37%

Dew point: 48 °F

Location of Santa ClaritaLocation

Historic Weather in Santa Clarita

°F

Santa Clarita temperature yesterday

Maximum temperature yesterday: 78 °F (at 1:51 PM)
Minimum temperature yesterday: 55 °F (at 6:51 AM)
Average temperature yesterday: 66 °F

Past Weeks' High & Low Weather Summary

 TemperatureHumidityPressure
High90 °F (Apr 9, 3:51 PM)88% (Apr 16, 2:03 AM)30.09 "Hg (Apr 16, 2:03 AM)
Low51 °F (Apr 10, 4:51 AM)5% (Apr 9, 12:51 PM)29.75 "Hg (Apr 16, 4:51 PM)
Average67 °F46%29.94 "Hg
* Reported Apr 5 11:51 AM — Apr 20 11:51 AM, Santa Clarita, Weather by CustomWeather, © 2014

Note: Actual official high and low records may vary slightly from our data, if they occured in-between our weather recording intervals... More about our weather records

Advertising

Historic Weather Conditions — Data for Previous 24 hours

 ConditionsComfort  
Time TempWeatherWind HumidityBarometerVisibility
11:51 AM
Apr 20
76 °FSunny.No wind37%30.03 "Hg10 mi
10:51 AM72 °FSunny.No wind46%30.04 "Hg10 mi
9:51 AM68 °FSunny.No wind55%30.03 "Hg10 mi
8:51 AM62 °FSunny.No wind70%30.04 "Hg8 mi
7:51 AM58 °FSunny.No wind78%30.04 "Hg8 mi
6:51 AM57 °FClear.No wind81%30.02 "Hg10 mi
5:51 AM56 °FClear.No wind81%30.01 "Hg10 mi
4:51 AM58 °FClear.No wind78%30.00 "Hg10 mi
3:51 AM58 °FClear.No wind78%30.01 "Hg10 mi
2:51 AM59 °FClear.No wind75%30.01 "Hg10 mi
1:51 AM59 °FClear.No wind75%30.02 "Hg10 mi
12:51 AM59 °FClear.No wind75%30.03 "Hg10 mi
11:51 PM
Apr 19
60 °FClear.5 mph75%30.02 "Hg10 mi
10:51 PM62 °FClear.7 mph70%30.01 "Hg10 mi
9:51 PM65 °FClear.5 mph66%29.99 "Hg10 mi
8:51 PM67 °FClear.No wind61%29.97 "Hg10 mi
7:51 PM70 °FSunny.3 mph46%29.96 "Hg10 mi
6:51 PM72 °FSunny.6 mph44%29.95 "Hg10 mi
5:51 PM77 °FSunny.6 mph36%29.93 "Hg10 mi
4:51 PM77 °FSunny.3 mph44%29.93 "Hg10 mi
3:51 PM78 °FSunny.9 mph40%29.92 "Hg10 mi
2:51 PM78 °FSunny.6 mph42%29.93 "Hg10 mi
1:51 PM78 °FSunny.8 mph42%29.95 "Hg10 mi
12:51 PM77 °FSunny.7 mph44%29.96 "Hg10 mi
Weather by CustomWeather, © 2014

See weather overview